User: anonymous   Login
Location: Goheenville
(40.9070°N, 79.3720°W)
Time: 00:44:24
(UTC-04:00)
Language:

NOAA 11 - Orbit

View from above orbital plane
View from above orbital plane
View from above satellite
View from above satellite

Ground track
Ground track

The orbit data is extracted from the following two-line orbital elements,

1 19531U 88089A   18111.58763217 -.00000019  00000-0  11542-4 0  9991
2 19531  98.5046 161.6845 0010350 228.0947 131.9345 14.15224608526377
Epoch (UTC): 21 April 2018 14:06:11
Eccentricity: 0.0010350
inclination: 98.5046°
perigee height: 834 km
apogee height: 849 km
right ascension of ascending node: 161.6845°
argument of perigee: 228.0947°
revolutions per day: 14.15224608
mean anomaly at epoch: 131.9345°
orbit number at epoch: 52637

The dashed part of the orbit path shows where the satellite is in the earth's shadow,  

DLR